Weather History for Vilnius, Lithuania

Change the Weather History Date:

Saturday, February 1, 2014

  Actual Average Record
Temperature  
Mean Temperature 16 °F -  
Max Temperature 21 °F 29 °F 39 °F (2002)
Min Temperature 12 °F 18 °F -9 °F (2012)
Degree Days  
Heating Degree Days 48    
Moisture  
Dew Point -1 °F    
Average Humidity 44    
Maximum Humidity 49    
Minimum Humidity 29    
Precipitation  
Precipitation 0.00 in 0.05 in - ()
Sea Level Pressure  
Sea Level Pressure 30.28 in    
Wind  
Wind Speed 22 mph ()    
Max Wind Speed 28 mph    
Max Gust Speed 43 mph    
Visibility 6.9 miles    
Events Snow    
Averages and records for this station are not official NWS values.
T = Trace of Precipitation, MM = Missing Value Source: Averaged Metar Reports

Daily Weather History Graph

Daily Weather History Graph

Search for Another Location

Airport:

Trip Planner

Search our weather history database for the weather conditions in past years. The results will help you decide how hot, cold, wet, or windy it might be!

Date:

Astronomy

Feb. 01, 2014 Rise Set
Actual Time 8:08 AM EET 4:57 PM EET
Civil Twilight 7:29 AM EET 5:36 PM EET
Nautical Twilight 6:45 AM EET 6:19 PM EET
Astronomical Twilight 6:03 AM EET 7:01 PM EET
Moon 8:21 AM EET (2/1) 7:39 PM EET (2/1)
Length of Visible Light 10h 07m
Length of Day
8h 48m
Waxing Crescent, 3% of the Moon is Illuminated
Feb 1
Waxing Crescent
Feb 6
First Quarter
Feb 15
Full
Feb 22
Last Quarter
Mar 1
New

Hourly Weather History & Observations

Time (EET) Temp. Windchill Dew Point Humidity Pressure Visibility Wind Dir Wind Speed Gust Speed Precip Events Conditions
12:20 AM 14.0 °F -5.1 °F -5.8 °F 41% 30.39 in 6.2 mi SSE 24.2 mph - N/A Snow Low Drifting Snow
12:50 AM 14.0 °F -5.5 °F -4.0 °F 45% 30.36 in 6.2 mi SSE 25.3 mph - N/A Snow Low Drifting Snow
1:20 AM 14.0 °F -5.5 °F -4.0 °F 45% 30.36 in 6.2 mi SSE 25.3 mph - N/A Snow Low Drifting Snow
1:50 AM 14.0 °F -5.1 °F -4.0 °F 45% 30.36 in 6.2 mi SSE 24.2 mph - N/A Snow Low Drifting Snow
2:00 AM 14 °F - -4 °F 29% 30.45 in 11 mi SSE 20.1 mph - -   Mostly Cloudy
2:20 AM 14.0 °F -5.1 °F -4.0 °F 45% 30.36 in 6.2 mi SSE 24.2 mph - N/A Snow Low Drifting Snow
2:50 AM 14.0 °F -5.1 °F -4.0 °F 45% 30.36 in 6.2 mi SSE 24.2 mph - N/A Snow Low Drifting Snow
3:20 AM 14.0 °F -5.5 °F -4.0 °F 45% 30.33 in 6.2 mi SSE 25.3 mph - N/A Snow Low Drifting Snow
3:50 AM 14.0 °F -5.1 °F -4.0 °F 45% 30.33 in 6.2 mi SSE 24.2 mph - N/A Snow Low Drifting Snow
4:20 AM 14.0 °F -5.5 °F -4.0 °F 45% 30.33 in 6.2 mi SSE 25.3 mph - N/A Snow Low Drifting Snow
4:50 AM 14.0 °F -5.1 °F -4.0 °F 45% 30.30 in 6.2 mi SSE 24.2 mph 38.0 mph N/A Snow Low Drifting Snow
5:00 AM 14 °F - -4 °F 29% 30.39 in 11 mi SSE 17.9 mph - -   Overcast
5:20 AM 14.0 °F -5.8 °F -4.0 °F 45% 30.30 in 6.2 mi SSE 26.5 mph - N/A Snow Low Drifting Snow
5:50 AM 14.0 °F -5.1 °F -2.2 °F 49% 30.30 in 6.2 mi SSE 24.2 mph - N/A Snow Low Drifting Snow
6:20 AM 14.0 °F -5.1 °F -4.0 °F 45% 30.30 in 6.2 mi SSE 24.2 mph - N/A Snow Low Drifting Snow
6:50 AM 14.0 °F -5.1 °F -4.0 °F 45% 30.30 in 6.2 mi SSE 24.2 mph - N/A Snow Low Drifting Snow
7:20 AM 14.0 °F -5.1 °F -4.0 °F 45% 30.27 in 6.2 mi SSE 24.2 mph - N/A Snow Low Drifting Snow
7:50 AM 14.0 °F -5.5 °F -4.0 °F 45% 30.27 in 6.2 mi SSE 25.3 mph - N/A Snow Low Drifting Snow
8:00 AM 14 °F - -3 °F 32% 30.37 in 12 mi SSE 17.9 mph - -   Mostly Cloudy
8:20 AM 14.0 °F -4.7 °F -2.2 °F 49% 30.30 in 6.2 mi SSE 23.0 mph - N/A Snow Low Drifting Snow
8:50 AM 14.0 °F -4.7 °F -4.0 °F 45% 30.30 in 6.2 mi SSE 23.0 mph - N/A Snow Low Drifting Snow
9:20 AM 14.0 °F -5.1 °F -2.2 °F 49% 30.27 in 6.2 mi SSE 24.2 mph 35.7 mph N/A Snow Low Drifting Snow
9:50 AM 14.0 °F -5.5 °F -2.2 °F 49% 30.27 in 6.2 mi SSE 25.3 mph 38.0 mph N/A Snow Low Drifting Snow
10:20 AM 15.8 °F -2.3 °F -2.2 °F 45% 30.30 in 6.2 mi SSE 23.0 mph - N/A Snow Low Drifting Snow
10:50 AM 15.8 °F -2.3 °F -2.2 °F 45% 30.27 in 6.2 mi SSE 23.0 mph - N/A Snow Low Drifting Snow
11:00 AM 16 °F - -2 °F 29% 30.35 in 9 mi SSE 22.4 mph - -   Mostly Cloudy
11:20 AM 15.8 °F -3.4 °F -2.2 °F 45% 30.27 in 6.2 mi SSE 26.5 mph - N/A Snow Low Drifting Snow
11:50 AM 15.8 °F -2.7 °F -0.4 °F 49% 30.27 in 6.2 mi SSE 24.2 mph - N/A Snow Low Drifting Snow
12:20 PM 15.8 °F -3.7 °F -0.4 °F 49% 30.27 in 6.2 mi SSE 27.6 mph 42.6 mph N/A Snow Low Drifting Snow
12:50 PM 17.6 °F -0.3 °F -0.4 °F 45% 30.27 in 6.2 mi SSE 24.2 mph 35.7 mph N/A Snow Low Drifting Snow
1:20 PM 17.6 °F 0.1 °F -0.4 °F 45% 30.24 in 6.2 mi SSE 23.0 mph 35.7 mph N/A Snow Low Drifting Snow
1:50 PM 19.4 °F 2.1 °F 1.4 °F 46% 30.24 in 6.2 mi SSE 24.2 mph - N/A Snow Low Drifting Snow
2:00 PM 19 °F - 0 °F 29% 30.31 in 12 mi SSE 20.1 mph - -   Mostly Cloudy
2:20 PM 19.4 °F 3.2 °F 1.4 °F 46% 30.24 in 6.2 mi SSE 20.7 mph - N/A Snow Low Drifting Snow
2:50 PM 19.4 °F 2.1 °F 1.4 °F 46% 30.24 in 6.2 mi SSE 24.2 mph 38.0 mph N/A Snow Low Drifting Snow
3:20 PM 19.4 °F 2.5 °F 1.4 °F 46% 30.24 in 6.2 mi SSE 23.0 mph - N/A Snow Low Drifting Snow
3:50 PM 19.4 °F 2.5 °F 1.4 °F 46% 30.24 in 6.2 mi SSE 23.0 mph - N/A Snow Low Drifting Snow
4:20 PM 19.4 °F 2.8 °F 1.4 °F 46% 30.24 in 6.2 mi SSE 21.9 mph - N/A Snow Low Drifting Snow
4:50 PM 19.4 °F 2.8 °F 1.4 °F 46% 30.21 in 6.2 mi SSE 21.9 mph - N/A Snow Low Drifting Snow
5:00 PM 20 °F - 2 °F 30% 30.29 in 12 mi SSE 17.9 mph - -   Mostly Cloudy
5:20 PM 19.4 °F 2.8 °F 1.4 °F 46% 30.24 in 6.2 mi SSE 21.9 mph - N/A Snow Low Drifting Snow
5:50 PM 19.4 °F 3.6 °F 1.4 °F 46% 30.24 in 6.2 mi SSE 19.6 mph - N/A Snow Low Drifting Snow
6:20 PM 19.4 °F 2.8 °F 1.4 °F 46% 30.24 in 6.2 mi SSE 21.9 mph - N/A Snow Low Drifting Snow
6:50 PM 19.4 °F 2.5 °F 1.4 °F 46% 30.21 in 6.2 mi SSE 23.0 mph 34.5 mph N/A Snow Low Drifting Snow
7:20 PM 19.4 °F 2.1 °F 1.4 °F 46% 30.21 in 6.2 mi SSE 24.2 mph - N/A Snow Low Drifting Snow
7:50 PM 19.4 °F 1.1 °F 1.4 °F 46% 30.21 in 6.2 mi SSE 27.6 mph - N/A Snow Low Drifting Snow
8:00 PM 19 °F - 1 °F 31% 30.29 in 12 mi SSE 17.9 mph - -   Clear
8:20 PM 19.4 °F 2.5 °F 1.4 °F 46% 30.21 in 6.2 mi SSE 23.0 mph - N/A Snow Low Drifting Snow
8:50 PM 19.4 °F 2.5 °F 1.4 °F 46% 30.21 in 6.2 mi SSE 23.0 mph - N/A Snow Low Drifting Snow
9:20 PM 19.4 °F 2.1 °F 3.2 °F 49% 30.21 in 6.2 mi SSE 24.2 mph 36.8 mph N/A Snow Low Drifting Snow
9:50 PM 19.4 °F 2.1 °F 3.2 °F 49% 30.21 in 6.2 mi SSE 24.2 mph - N/A Snow Low Drifting Snow
10:20 PM 19.4 °F 2.1 °F 1.4 °F 46% 30.21 in 6.2 mi SSE 24.2 mph - N/A Snow Low Drifting Snow
10:50 PM 19.4 °F 1.8 °F 3.2 °F 49% 30.21 in 6.2 mi SSE 25.3 mph - N/A Snow Low Drifting Snow
11:00 PM 20 °F - 2 °F 30% 30.27 in 12 mi SSE 17.9 mph - -   Overcast
11:20 PM 19.4 °F 2.5 °F 3.2 °F 49% 30.21 in 6.2 mi SSE 23.0 mph - N/A Snow Low Drifting Snow
11:50 PM 19.4 °F 2.5 °F 3.2 °F 49% 30.21 in 6.2 mi SSE 23.0 mph - N/A Snow Low Drifting Snow